Regional Weather Roundup
Issued by NWS

Home | Current Version | Previous Version | Graphics & Text | Print | Product List | Glossary Off
Versions: 1 2 3 4 5 6 7 8 9 10 11 12 13 14 15 16 17 18 19 20 21 22 23 24 25 26 27 28

000
ASUS43 KDMX 311807
RWRIA

WEATHER ROUNDUP FOR IOWA
NATIONAL WEATHER SERVICE DES MOINES IA
100 PM CDT FRI OCT 31 2014

NOTE: "FAIR" INDICATES FEW OR NO CLOUDS BELOW 12,000 FEET WITH NO
SIGNIFICANT WEATHER AND/OR OBSTRUCTIONS TO VISIBILITY.

* - THESE STATIONS ARE NOT NWS STATIONS...THUS NOT UNDER NWS
QUALITY CONTROL.  THEY ALSO DO NOT REPORT WEATHER SUCH
AS PRECIPITATION OR FOG.

IAZ001>003-012>014-020>022-031>034-043>046-311900-
   NORTHWEST IOWA

CITY           SKY/WX    TMP DP  RH WIND       PRES   REMARKS
CARROLL *      SUNNY     37  19  48 N15       30.53F WCI  28
CHEROKEE *     SUNNY     36  21  55 NE9       30.56F WCI  29
DENISON *      SUNNY     37  19  48 VRB7G17   30.53F WCI  32
LE MARS *      SUNNY     36  19  51 VRB7      30.57F WCI  30
ORANGE CITY *  SUNNY     37  18  44 NE5       30.55F WCI  34
SHELDON *      SUNNY     36  19  51 VRB6G12   30.55F WCI  31
SIOUX CITY     SUNNY     37  21  52 VRB6      30.59F WCI  32
6HR MIN TEMP:  23; 6HR MAX TEMP:  37;

SPENCER        SUNNY     37  18  46 N8        30.55F WCI  31
6HR MIN TEMP:  22; 6HR MAX TEMP:  37;

STORM LAKE *   SUNNY     36  18  48 N10G17    30.55S WCI  28
$$

IAZ055>058-069>071-079>083-090>094-311900-
   SOUTHWEST IOWA

CITY           SKY/WX    TMP DP  RH WIND       PRES   REMARKS
ATLANTIC *     SUNNY     39  19  45 N12       30.53S WCI  32
AUDUBON *      SUNNY     37  16  41 N10       30.53F WCI  30
CLARINDA *     SUNNY     41  16  36 N12       30.54F
COUNCIL BLFS * SUNNY     39  19  45 N9G18     30.54S WCI  33
CRESTON *      SUNNY     37  18  44 N21       30.49F WCI  27
HARLAN  *      SUNNY     37  19  48 N9G15     30.57F WCI  31
LAMONI         SUNNY     40  20  44 N14G22    30.47F WCI  32
6HR MIN TEMP:  29; 6HR MAX TEMP:  40; 6HR PCP: TRACE;

RED OAK *      SUNNY     39  18  41 VRB7G16   30.54F WCI  34
SHENANDOAH *   SUNNY     39  19  45 N12G17    30.55F WCI  32
$$

IAZ047>049-059>061-072>074-084-311900-
   CENTRAL IOWA

CITY           SKY/WX    TMP DP  RH WIND       PRES   REMARKS
AMES           SUNNY     39  19  44 N16       30.51S WCI  30
6HR MIN TEMP:  27; 6HR MAX TEMP:  39;

ANKENY *       SUNNY     39  19  45 N13G24    30.50F WCI  32
CHARITON *     SUNNY     37  19  48 N14G23    30.47F WCI  29
DES MOINES     SUNNY     40  19  43 N13G24    30.50F WCI  32
6HR MIN TEMP:  30; 6HR MAX TEMP:  40;

GRINNELL*      SUNNY     39  19  45 N12G21    30.45F WCI  32
KNOXVILLE *    SUNNY     37  18  44 N15G22    30.45F WCI  28
MARSHALLTOWN   SUNNY     40  19  43 N21       30.47F WCI  30
6HR MIN TEMP:  27; 6HR MAX TEMP:  40;

PELLA *        SUNNY     40  21  46 N13G20    30.47F WCI  32
PERRY *          N/A     39  19  45 N13G21    30.52F WCI  32
$$

IAZ004>006-015-016-023>025-035-036-311900-
   NORTH CENTRAL IOWA

CITY           SKY/WX    TMP DP  RH WIND       PRES   REMARKS
ALGONA *       SUNNY     36  19  51 NE9G18    30.53F WCI  29
CLARION *      SUNNY     37  19  48 N15       30.51F WCI  28
ESTHERVILLE    SUNNY     35  18  49 N15       30.53F WCI  25
6HR MIN TEMP:  22; 6HR MAX TEMP:  35;

FORT DODGE *   SUNNY     36  19  51 N8        30.54F WCI  29
MASON CITY     SUNNY     38  19  46 N15       30.51F WCI  29
6HR MIN TEMP:  23; 6HR MAX TEMP:  38;

FOREST CITY *  SUNNY     36  21  55 N15       30.51F WCI  26
IOWA FALLS *     N/A     37  19  48 N13G23    30.50S WCI  29
$$

IAZ007>011-017>019-026>030-037>042-050>054-066-311900-
   NORTHEAST IOWA

CITY           SKY/WX    TMP DP  RH WIND       PRES   REMARKS
CEDAR RAPIDS   SUNNY     40  21  46 N20G29    30.40F WCI  30
6HR MIN TEMP:  29; 6HR MAX TEMP:  40;

CHARLES CITY * SUNNY     39  18  41 N18G24    30.47F WCI  30
CLINTON *      MOSUNNY   41  19  42 N21G29    30.36S
DECORAH *      MOSUNNY   36  18  48 N16G24    30.43S WCI  26
DUBUQUE        MOSUNNY   38  21  50 N20G33    30.35F WCI  28
6HR MIN TEMP:  30; 6HR MAX TEMP:  40;

MONTICELLO *   SUNNY     41  19  42 N16G33    30.38F
OELWEIN *      SUNNY     39  19  45 N13G30    30.43S WCI  32
WATERLOO       SUNNY     40  19  43 N22       30.45F WCI  30
6HR MIN TEMP:  27; 6HR MAX TEMP:  40; 6HR PCP: TRACE;

$$

IAZ064-065-067-068-078-311900-
   EAST CENTRAL IOWA

CITY           SKY/WX    TMP DP  RH WIND       PRES   REMARKS
DAVENPORT      MOSUNNY   42  19  39 N22G31    30.34F
6HR MIN TEMP:  30; 6HR MAX TEMP:  42;

IOWA CITY      SUNNY     41  22  46 N18G26    30.41F
6HR MIN TEMP:  31; 6HR MAX TEMP:  41;

MT. PLEASANT * SUNNY     40  21  45 N18G26    30.38F WCI  31
MUSCATINE *    SUNNY     43  19  39 N20G28    30.38F
QUAD CITIES    MOSUNNY   42  20  41 N18G26    30.33F
6HR MIN TEMP:  33; 6HR MAX TEMP:  43;

$$

IAZ062-063-075>077-085>089-095>099-311900-
   SOUTHEAST IOWA

CITY           SKY/WX    TMP DP  RH WIND       PRES   REMARKS
BURLINGTON     SUNNY     42  23  46 N21G29    30.36S
6HR MIN TEMP:  32; 6HR MAX TEMP:  42;

FAIRFIELD *    SUNNY     39  19  45 N21G26    30.40F WCI  29
FORT MADISON * SUNNY     45  23  42 N17G28    30.37F
KEOKUK *       SUNNY     43  23  45 N18G26    30.36F
OSKALOOSA *      N/A     40  20  44 N18G24    30.44F WCI  31
CENTERVILLE *  SUNNY     39  19  45 N12G22    30.46S WCI  32
OTTUMWA        LGT RAIN  41  21  44 N17G26    30.43F
6HR MIN TEMP:  29; 6HR MAX TEMP:  41; 6HR PCP: TRACE;

WASHINGTON *   SUNNY     41  23  48 N16G24    30.40F
$$

ABBREVIATIONS USED IN REMARKS
   TC - TEMPERATURES IN CELSIUS
  WCI - WIND CHILL INDEX
   HX - HEAT INDEX
  VSB - VISIBILITY
$$




USA.gov is the U.S. government's official web portal to all federal, state and local government web resources and services.